GW2167 Weather Reports


time (UTC)temp
F
wind
direction
speed
knots
gust
knots
rain 1hr
in
rain 24hr
in
rain mn
in
humidity
%
barometer
mb
20260504223103 59 340 2.6 5.2 0.00 0.00 0.81 76 1005.9
20260504223003 59 340 2.6 5.2 0.00 0.00 0.81 75 1005.9
20260504222903 59 343 2.6 5.2 0.00 0.00 0.81 75 1006.4
20260504222803 59 342 2.6 7.0 0.00 0.00 0.81 75 1005.9
20260504222717 59 339 2.6 9.6 0.00 0.00 0.81 75 1005.9
20260504222703 59 339 2.6 9.6 0.00 0.00 0.81 75 1006.0
20260504222603 59 343 2.6 9.6 0.00 0.00 0.81 75 1006.1
20260504222403 59 348 3.5 9.6 0.00 0.00 0.81 75 1005.9
20260504222304 59 349 3.5 9.6 0.00 0.00 0.81 74 1006.0
20260504222203 59 349 3.5 9.6 0.00 0.00 0.81 75 1005.9
20260504222103 59 351 3.5 9.6 0.00 0.00 0.81 74 1005.8
20260504222003 59 349 4.3 9.6 0.00 0.00 0.81 74 1005.8
20260504221903 59 349 4.3 9.6 0.00 0.00 0.81 74 1005.9
20260504221803 59 347 4.3 9.6 0.00 0.00 0.81 74 1005.9
20260504221719 59 347 4.3 9.6 0.00 0.00 0.81 74 1005.9
20260504221703 59 347 4.3 9.6 0.00 0.00 0.81 74 1005.6
20260504221603 59 345 4.3 9.6 0.00 0.00 0.81 74 1005.8
20260504221403 59 342 4.3 8.7 0.00 0.00 0.81 74 1005.9
20260504221303 60 340 4.3 8.7 0.00 0.00 0.81 73 1005.9
20260504221216 60 341 4.3 8.7 0.00 0.00 0.81 73 1005.9
20260504221203 60 340 4.3 8.7 0.00 0.00 0.81 73 1005.9
20260504221103 60 340 4.3 8.7 0.00 0.00 0.81 73 1005.9
20260504220914 60 338 4.3 9.6 0.00 0.00 0.81 72 1006.0
20260504220803 60 340 4.3 9.6 0.00 0.00 0.81 72 1005.9
20260504220703 60 341 5.2 9.6 0.00 0.00 0.81 72 1005.9
20260504220603 60 343 5.2 9.6 0.00 0.00 0.81 72 1005.7
20260504220503 60 344 5.2 9.6 0.00 0.00 0.81 72 1005.9
20260504220403 60 344 5.2 9.6 0.00 0.00 0.81 72 1005.9
20260504220303 60 345 4.3 9.6 0.00 0.00 0.81 72 1005.8
20260504220203 60 346 4.3 9.6 0.00 0.00 0.81 72 1005.9
20260504220003 60 349 4.3 9.6 0.00 0.00 0.81 70 1005.9
20260504215903 60 349 4.3 9.6 0.00 0.00 0.81 69 1005.8
20260504215803 60 350 4.3 9.6 0.00 0.00 0.81 69 1005.9
20260504215703 60 351 4.3 9.6 0.00 0.00 0.81 68 1006.0
20260504215603 60 351 3.5 8.7 0.00 0.00 0.81 67 1005.8
20260504215503 60 350 3.5 8.7 0.00 0.00 0.81 67 1005.9
20260504215419 60 349 3.5 8.7 0.00 0.00 0.81 67 1005.9
20260504215403 60 348 3.5 8.7 0.00 0.00 0.81 67 1005.9
20260504215304 60 347 4.3 8.7 0.00 0.00 0.81 67 1006.0
20260504215103 60 346 4.3 8.7 0.00 0.00 0.81 66 1005.8
20260504215003 60 345 4.3 9.6 0.00 0.00 0.81 66 1005.7
20260504214903 60 345 4.3 9.6 0.00 0.00 0.81 66 1005.9
20260504214803 60 346 4.3 10.4 0.00 0.00 0.81 66 1005.8
20260504214703 60 344 5.2 10.4 0.00 0.00 0.81 66 1005.6
20260504214603 60 343 5.2 10.4 0.00 0.00 0.81 66 1005.8
20260504214503 60 342 5.2 13.9 0.00 0.00 0.81 66 1005.8
20260504214403 60 342 5.2 13.9 0.00 0.00 0.81 65 1005.8
20260504214303 60 341 5.2 13.9 0.00 0.00 0.81 66 1005.8
20260504214203 60 339 5.2 13.9 0.00 0.00 0.81 65 1005.8
20260504214103 60 338 6.1 13.9 0.00 0.00 0.81 65 1005.7
20260504214003 60 338 6.1 13.9 0.00 0.00 0.81 65 1005.6
20260504213903 59 335 6.1 13.9 0.00 0.00 0.81 65 1005.8
20260504213803 59 332 5.2 13.9 0.00 0.00 0.81 65 1005.8
20260504213703 59 330 6.1 13.9 0.00 0.00 0.81 65 1005.7
20260504213603 59 327 5.2 13.9 0.00 0.00 0.81 65 1005.5
20260504213516 58 327 5.2 13.9 0.00 0.00 0.81 65 1005.5
20260504213503 58 326 5.2 13.9 0.00 0.00 0.81 65 1005.6
20260504213403 58 324 5.2 13.9 0.00 0.00 0.81 66 1005.7
20260504213203 58 320 5.2 8.7 0.00 0.00 0.81 66 1005.6
20260504213119 58 318 5.2 8.7 0.00 0.00 0.81 66 1005.6
20260504213103 58 318 5.2 8.7 0.00 0.00 0.81 66 1005.5
20260504213003 58 316 5.2 8.7 0.00 0.00 0.81 66 1005.5
20260504212916 57 314 4.3 8.7 0.00 0.00 0.81 67 1005.5
20260504212818 57 313 4.3 8.7 0.00 0.00 0.81 67 1005.7
20260504212503 56 315 4.3 7.8 0.00 0.00 0.81 69 1005.6
20260504212417 55 314 4.3 7.8 0.00 0.00 0.81 69 1005.6
20260504212403 55 313 3.5 7.8 0.00 0.00 0.81 69 1005.5
20260504212304 55 311 3.5 7.8 0.00 0.00 0.81 71 1005.7
20260504212103 55 300 3.5 12.2 0.00 0.00 0.81 71 1005.5
20260504212003 54 300 3.5 13.0 0.00 0.00 0.81 73 1005.5
20260504211903 54 301 3.5 13.0 0.00 0.00 0.81 73 1005.5
20260504211803 54 299 4.3 13.0 0.00 0.00 0.81 73 1005.5
20260504211703 54 297 4.3 13.0 0.00 0.00 0.81 73 1005.5
20260504211603 54 294 4.3 13.0 0.00 0.00 0.81 73 1005.4
20260504211503 54 293 4.3 13.0 0.00 0.00 0.81 73 1005.5
20260504211418 54 294 3.5 13.0 0.00 0.00 0.81 73 1005.5
20260504211403 54 294 3.5 13.0 0.00 0.00 0.81 73 1005.3
20260504211303 53 297 3.5 13.0 0.00 0.00 0.81 74 1005.4
20260504211103 53 309 3.5 13.0 0.00 0.00 0.81 76 1005.0
20260504211003 52 315 2.6 13.0 0.00 0.00 0.81 79 1005.5
20260504210919 52 317 2.6 13.0 0.00 0.00 0.81 81 1005.5
20260504210903 52 320 1.7 13.0 0.00 0.00 0.81 81 1005.4
20260504210803 52 349 1.7 11.3 0.00 0.00 0.81 81 1005.1
20260504210603 52 34 0.9 1.7 0.00 0.00 0.81 80 1005.1
20260504210503 52 45 0.9 1.7 0.00 0.00 0.81 80 1005.3
20260504210417 52 51 0.9 1.7 0.00 0.00 0.81 79 1005.3
20260504210403 52 53 0.9 1.7 0.00 0.00 0.81 79 1005.1
20260504210303 52 62 0.9 1.7 0.00 0.00 0.81 79 1005.0
20260504210004 52 86 0.9 1.7 0.00 0.00 0.81 79 1005.0
20260504205903 52 92 0.9 1.7 0.00 0.00 0.81 79 1005.1
20260504205816 52 95 0.9 1.7 0.00 0.00 0.81 79 1005.1
20260504205803 52 96 0.9 1.7 0.00 0.00 0.81 79 1005.1
20260504205703 52 99 0.9 1.7 0.00 0.00 0.81 78 1005.3
20260504205503 52 102 0.9 1.7 0.00 0.00 0.81 79 1005.0
20260504205418 52 102 0.9 1.7 0.00 0.00 0.81 79 1005.0
20260504205403 52 102 0.9 1.7 0.00 0.00 0.81 79 1005.3
20260504205304 52 101 0.9 1.7 0.00 0.00 0.81 79 1005.3
20260504205103 52 98 0.9 1.7 0.00 0.00 0.81 79 1005.0
20260504205003 53 96 0.9 1.7 0.00 0.00 0.81 78 1005.0
20260504204903 53 92 0.9 1.7 0.00 0.00 0.81 77 1005.3
20260504204803 53 90 0.9 1.7 0.00 0.00 0.81 77 1005.1
20260504204703 53 88 0.9 1.7 0.00 0.00 0.81 77 1005.0
20260504204603 53 86 0.9 1.7 0.00 0.00 0.81 77 1004.9
20260504204503 53 84 0.9 1.7 0.00 0.00 0.81 77 1005.0
20260504204403 53 82 0.9 1.7 0.00 0.00 0.81 77 1005.3
20260504204303 53 78 0.9 1.7 0.00 0.00 0.81 78 1005.1
20260504204203 53 75 0.9 1.7 0.00 0.00 0.81 78 1004.9
20260504204103 53 73 0.9 1.7 0.00 0.00 0.81 77 1005.0
20260504204003 53 71 0.9 1.7 0.00 0.00 0.81 78 1004.9
20260504203903 53 70 0.9 1.7 0.00 0.00 0.81 77 1005.1
20260504203816 53 67 0.9 1.7 0.00 0.00 0.81 77 1005.1
20260504203803 53 66 0.9 1.7 0.00 0.00 0.81 77 1005.1
20260504203703 53 63 0.9 1.7 0.00 0.00 0.81 77 1005.0
20260504203503 53 60 0.9 1.7 0.00 0.00 0.81 77 1005.1
20260504203418 53 61 0.9 1.7 0.00 0.00 0.81 77 1005.1
20260504203403 53 61 0.9 1.7 0.00 0.00 0.81 77 1004.9
20260504203303 53 63 0.9 1.7 0.00 0.00 0.81 76 1005.0
20260504203103 53 69 0.9 1.7 0.00 0.00 0.81 76 1005.1
20260504203003 53 73 0.9 1.7 0.00 0.00 0.81 75 1005.0
20260504202903 53 76 0.9 1.7 0.00 0.00 0.81 74 1005.3
20260504202803 53 82 0.9 1.7 0.00 0.00 0.81 74 1005.1
20260504202703 53 87 0.9 1.7 0.00 0.00 0.81 74 1005.1
20260504202603 53 91 0.9 1.7 0.00 0.00 0.81 74 1005.4
20260504202517 53 94 0.9 1.7 0.00 0.00 0.81 74 1005.4
20260504202503 53 95 0.9 1.7 0.00 0.00 0.81 74 1005.0
20260504202403 54 98 0.9 1.7 0.00 0.00 0.81 74 1004.9
20260504202203 54 104 0.9 1.7 0.00 0.00 0.81 73 1005.3
20260504202103 54 105 0.9 1.7 0.00 0.00 0.81 73 1005.0
20260504202003 54 107 0.9 1.7 0.00 0.00 0.81 73 1005.1
20260504201903 54 108 0.9 1.7 0.00 0.00 0.81 73 1005.1
20260504201803 54 109 0.9 1.7 0.00 0.00 0.81 73 1005.0
20260504201703 54 107 0.9 1.7 0.00 0.00 0.81 73 1005.1
20260504201603 54 105 0.9 1.7 0.00 0.00 0.81 73 1005.0
20260504201503 54 102 0.9 1.7 0.00 0.00 0.81 73 1005.3
20260504201403 54 99 0.9 1.7 0.00 0.00 0.81 73 1005.0
20260504201303 54 94 0.9 1.7 0.00 0.00 0.81 73 1004.8
20260504201203 54 86 0.9 1.7 0.00 0.00 0.81 73 1005.1
20260504201103 54 75 1.7 1.7 0.00 0.00 0.81 73 1005.4
20260504201016 54 67 1.7 1.7 0.00 0.00 0.81 73 1005.4
20260504201003 54 65 1.7 1.7 0.00 0.00 0.81 73 1005.1
20260504200903 54 53 1.7 1.7 0.00 0.00 0.81 73 1005.0
20260504200703 54 31 1.7 1.7 0.00 0.00 0.81 72 1005.1
20260504200603 54 20 1.7 1.7 0.00 0.00 0.81 72 1005.0
20260504200503 54 12 1.7 2.6 0.00 0.00 0.81 72 1005.3
20260504200424 54 6 1.7 2.6 0.00 0.00 0.81 73 1005.3
20260504200403 54 4 1.7 2.6 0.00 0.00 0.81 73 1005.0
20260504200303 54 359 1.7 2.6 0.00 0.00 0.81 73 1005.0
20260504200217 54 358 1.7 2.6 0.00 0.00 0.81 73 1005.0
20260504195903 55 2 1.7 2.6 0.00 0.00 0.81 73 1004.9
20260504195803 55 1 1.7 2.6 0.00 0.00 0.81 73 1004.9
20260504195703 55 356 1.7 2.6 0.00 0.00 0.81 72 1004.9
20260504195603 55 352 1.7 2.6 0.00 0.00 0.81 72 1005.1
20260504195503 55 351 1.7 2.6 0.00 0.00 0.81 72 1005.3
20260504195403 55 351 1.7 2.6 0.00 0.00 0.81 73 1004.9
20260504195304 55 350 1.7 2.6 0.00 0.00 0.81 73 1005.0
20260504195203 55 349 1.7 2.6 0.00 0.00 0.81 73 1004.9
20260504195103 55 348 1.7 2.6 0.00 0.00 0.81 73 1005.0
20260504195003 55 345 1.7 2.6 0.00 0.00 0.81 73 1005.1
20260504194919 55 345 1.7 2.6 0.00 0.00 0.81 74 1005.1
20260504194903 55 345 1.7 2.6 0.00 0.00 0.81 74 1004.9
20260504194803 55 345 1.7 2.6 0.00 0.00 0.81 73 1004.9
20260504194603 55 352 1.7 2.6 0.00 0.00 0.81 74 1005.0
20260504194517 55 353 1.7 2.6 0.00 0.00 0.81 74 1005.0
20260504194503 55 353 1.7 2.6 0.00 0.00 0.81 74 1005.3
20260504194416 55 353 1.7 2.6 0.00 0.00 0.81 73 1005.3
20260504194403 55 353 1.7 2.6 0.00 0.00 0.81 73 1004.9
20260504194103 55 352 1.7 2.6 0.00 0.00 0.81 73 1004.9
20260504194003 55 350 0.9 2.6 0.00 0.00 0.81 73 1005.0
20260504193903 55 353 0.9 2.6 0.00 0.00 0.81 73 1005.0
20260504193803 56 357 0.9 1.7 0.00 0.00 0.81 72 1005.0
20260504193703 56 2 0.9 1.7 0.00 0.00 0.81 72 1005.3
20260504193603 56 7 0.9 1.7 0.00 0.00 0.81 70 1005.3
20260504193503 56 13 0.9 1.7 0.00 0.00 0.81 71 1005.1
20260504193403 56 18 0.9 1.7 0.00 0.00 0.81 70 1005.0
20260504193303 56 22 0.9 1.7 0.00 0.00 0.81 70 1005.1
20260504193203 56 27 0.9 1.7 0.00 0.00 0.81 70 1005.1
20260504193103 56 32 0.9 1.7 0.00 0.00 0.81 69 1005.0
20260504193003 56 40 0.9 1.7 0.00 0.00 0.81 69 1005.3
20260504192903 56 41 0.9 1.7 0.00 0.00 0.81 68 1005.0
20260504192803 56 36 0.9 1.7 0.00 0.00 0.81 70 1005.0
20260504192703 56 33 0.9 1.7 0.00 0.00 0.81 68 1005.0
20260504192619 56 31 0.9 1.7 0.00 0.00 0.81 68 1005.0
20260504192603 57 31 0.9 1.7 0.00 0.00 0.81 68 1005.3
20260504192503 57 26 0.9 1.7 0.00 0.00 0.81 67 1005.1
20260504192304 57 21 0.9 1.7 0.00 0.00 0.81 68 1005.1
20260504192203 57 20 0.9 1.7 0.00 0.00 0.81 68 1005.3
20260504192103 57 20 0.9 1.7 0.00 0.00 0.81 68 1005.3
20260504192018 57 19 0.9 1.7 0.00 0.00 0.81 68 1005.3
20260504192003 57 19 0.9 1.7 0.00 0.00 0.81 68 1005.0
20260504191903 57 19 0.9 1.7 0.00 0.00 0.81 68 1005.0
20260504191820 57 23 1.7 1.7 0.00 0.00 0.81 67 1005.0
20260504191503 57 41 1.7 1.7 0.00 0.00 0.81 67 1005.3
20260504191403 57 47 1.7 1.7 0.00 0.00 0.81 67 1005.0
20260504191303 57 52 1.7 1.7 0.00 0.00 0.81 68 1005.1
20260504191219 57 55 1.7 1.7 0.00 0.00 0.81 68 1005.1
20260504191203 57 57 1.7 1.7 0.00 0.00 0.81 68 1005.1
20260504191103 58 62 1.7 1.7 0.00 0.00 0.81 67 1005.3
20260504190903 58 73 1.7 1.7 0.00 0.00 0.81 65 1005.1
20260504190803 58 76 1.7 1.7 0.00 0.00 0.81 65 1005.3
20260504190703 58 79 1.7 1.7 0.00 0.00 0.81 64 1005.4
20260504190603 58 80 1.7 1.7 0.00 0.00 0.81 64 1005.4
20260504190503 58 82 1.7 1.7 0.00 0.00 0.81 64 1005.1
20260504190403 58 83 1.7 1.7 0.00 0.00 0.81 64 1005.4
20260504190318 58 84 1.7 1.7 0.00 0.00 0.81 63 1005.4
20260504190303 58 84 1.7 1.7 0.00 0.00 0.81 63 1005.3
20260504190203 58 86 1.7 1.7 0.00 0.00 0.81 63 1005.1
20260504190003 58 88 0.9 1.7 0.00 0.00 0.81 63 1005.0
20260504185903 58 88 0.9 1.7 0.00 0.00 0.81 64 1005.0
20260504185803 58 87 0.9 1.7 0.00 0.00 0.81 64 1005.4
20260504185703 58 86 0.9 1.7 0.00 0.00 0.81 64 1005.3
20260504185603 58 81 0.9 1.7 0.00 0.00 0.81 65 1005.1
20260504185503 59 75 0.9 1.7 0.00 0.00 0.81 65 1005.3
20260504185403 59 67 0.9 3.5 0.00 0.00 0.81 65 1005.1
20260504185316 59 46 0.9 3.5 0.00 0.00 0.81 65 1005.1
20260504185304 59 25 0.9 3.5 0.00 0.00 0.81 64 1005.3
20260504185203 59 333 0.9 4.3 0.00 0.00 0.81 64 1005.5
20260504185003 59 303 1.7 4.3 0.00 0.00 0.81 66 1005.5
20260504184903 59 300 1.7 4.3 0.00 0.00 0.81 64 1005.3
20260504184803 59 299 1.7 4.3 0.00 0.00 0.81 65 1005.4
20260504184703 59 298 1.7 4.3 0.00 0.00 0.81 64 1005.3
20260504184603 59 297 1.7 4.3 0.00 0.00 0.81 64 1005.1
20260504184503 59 295 1.7 4.3 0.00 0.00 0.81 64 1005.5
20260504184403 60 300 1.7 4.3 0.00 0.00 0.81 70 1005.3
20260504184303 60 305 1.7 4.3 0.00 0.00 0.81 70 1005.3
20260504184203 60 312 1.7 4.3 0.00 0.00 0.81 70 1005.4
20260504184103 60 327 1.7 4.3 0.00 0.00 0.81 70 1005.5
20260504184003 60 3 0.9 4.3 0.00 0.00 0.81 70 1005.5
20260504183903 60 45 0.9 2.6 0.00 0.00 0.81 65 1005.3
20260504183803 60 62 0.9 1.7 0.00 0.00 0.81 61 1005.4
20260504183703 60 73 0.9 1.7 0.00 0.00 0.81 61 1005.1
20260504183603 60 78 0.9 1.7 0.00 0.00 0.81 61 1005.4
20260504183503 60 80 0.9 1.7 0.00 0.00 0.81 60 1005.3
20260504183403 60 82 0.9 1.7 0.00 0.00 0.81 59 1005.1
20260504183303 60 82 0.9 1.7 0.00 0.00 0.81 59 1005.0
20260504183203 61 79 0.9 1.7 0.00 0.00 0.81 59 1005.1
20260504183103 61 74 0.9 1.7 0.00 0.00 0.81 58 1005.0
20260504183016 61 69 0.9 1.7 0.00 0.00 0.81 58 1005.0
20260504183003 61 68 0.9 1.7 0.00 0.00 0.81 58 1005.4
20260504182919 61 64 0.9 1.7 0.00 0.00 0.81 58 1005.4
20260504182903 61 63 0.9 1.7 0.00 0.00 0.81 58 1005.1
20260504182603 61 55 0.9 1.7 0.00 0.00 0.81 58 1005.1
20260504182517 61 54 0.9 1.7 0.00 0.00 0.81 58 1005.1
20260504182503 61 54 0.9 1.7 0.00 0.00 0.81 58 1005.4
20260504182403 61 54 0.9 1.7 0.00 0.00 0.81 58 1005.3
20260504182203 62 51 0.9 1.7 0.00 0.00 0.81 58 1005.3
20260504182103 62 52 0.9 1.7 0.00 0.00 0.81 58 1005.4
20260504182003 62 50 0.9 1.7 0.00 0.00 0.81 58 1005.3
20260504181903 62 50 0.0 1.7 0.00 0.00 0.81 57 1005.4
20260504181803 62 51 0.0 1.7 0.00 0.00 0.81 57 1005.3
20260504181703 62 55 0.0 0.9 0.00 0.00 0.81 57 1005.4
20260504181603 62 72 0.0 0.9 0.00 0.00 0.81 57 1005.3
20260504181519 63 92 0.0 0.9 0.00 0.00 0.81 57 1005.3
20260504181503 63 95 0.0 0.9 0.00 0.00 0.81 57 1005.4
20260504181403 63 99 0.0 0.9 0.00 0.00 0.81 56 1005.4
20260504181103 63 99 0.0 0.9 0.00 0.00 0.81 55 1005.3
20260504181003 64 99 0.0 0.9 0.00 0.00 0.81 55 1005.4
20260504180918 64 99 0.0 0.9 0.00 0.00 0.81 55 1005.4
20260504180903 64 100 0.0 0.9 0.00 0.00 0.81 55 1005.5
20260504180803 64 101 0.0 0.9 0.00 0.00 0.81 53 1005.3
20260504180618 64 106 0.0 0.9 0.00 0.00 0.81 53 1005.3
20260504180603 64 107 0.0 0.9 0.00 0.00 0.81 54 1005.1
20260504180503 64 114 0.0 1.7 0.00 0.00 0.81 53 1005.1
20260504180303 64 118 0.0 1.7 0.00 0.00 0.81 53 1005.1
20260504180203 65 119 0.0 1.7 0.00 0.00 0.81 53 1005.3
20260504180119 65 119 0.0 1.7 0.00 0.00 0.81 53 1005.3
20260504180103 65 120 0.0 1.7 0.00 0.00 0.81 53 1005.4
20260504180003 65 121 0.0 1.7 0.00 0.00 0.81 53 1005.5
20260504175803 65 125 0.0 1.7 0.00 0.00 0.81 52 1005.4
20260504175703 66 127 0.0 1.7 0.00 0.00 0.81 51 1005.1
20260504175616 66 129 0.0 1.7 0.00 0.00 0.81 49 1005.1
20260504175603 66 130 0.0 1.7 0.00 0.00 0.81 49 1005.5
20260504175503 66 131 0.0 1.7 0.00 0.00 0.81 48 1005.1
20260504175304 67 136 0.0 1.7 0.00 0.00 0.81 47 1005.4
20260504175203 67 139 0.9 1.7 0.00 0.00 0.81 47 1005.3
20260504175103 67 141 0.9 1.7 0.00 0.00 0.81 46 1005.4
20260504175020 67 145 0.9 1.7 0.00 0.00 0.81 46 1005.4
20260504175003 67 145 0.9 1.7 0.00 0.00 0.81 46 1005.1
20260504174903 68 146 0.9 1.7 0.00 0.00 0.81 46 1005.1
20260504174703 68 157 0.9 1.7 0.00 0.00 0.81 45 1005.3
20260504174603 68 164 0.9 2.6 0.00 0.00 0.81 45 1005.4
20260504174503 68 171 0.9 2.6 0.00 0.00 0.81 44 1005.3
20260504174403 68 177 0.9 2.6 0.00 0.00 0.81 44 1005.5
20260504174303 69 186 0.9 2.6 0.00 0.00 0.81 43 1005.3
20260504174216 69 190 0.9 2.6 0.00 0.00 0.81 44 1005.3
20260504174203 69 191 0.9 2.6 0.00 0.00 0.81 44 1005.4
20260504174103 69 198 0.9 2.6 0.00 0.00 0.81 44 1005.4
20260504173903 70 207 0.9 2.6 0.00 0.00 0.81 42 1005.4
20260504173803 70 209 1.7 2.6 0.00 0.00 0.81 42 1005.5
20260504173703 70 210 1.7 2.6 0.00 0.00 0.81 42 1005.5
20260504173603 70 211 1.7 2.6 0.00 0.00 0.81 42 1005.5
20260504173403 71 204 1.7 2.6 0.00 0.00 0.81 40 1005.5
20260504173316 71 200 1.7 2.6 0.00 0.00 0.81 40 1005.5
20260504173303 71 200 1.7 3.5 0.00 0.00 0.81 41 1005.5
20260504173003 72 196 1.7 3.5 0.00 0.00 0.81 40 1005.5
20260504172903 72 196 1.7 3.5 0.00 0.00 0.81 40 1005.6
20260504172803 72 197 1.7 3.5 0.00 0.00 0.81 39 1005.6
20260504172703 72 198 1.7 3.5 0.00 0.00 0.81 39 1005.6
20260504172603 72 199 1.7 3.5 0.00 0.00 0.81 39 1005.5
20260504172503 72 207 1.7 7.0 0.00 0.00 0.81 38 1005.5
20260504172403 73 207 1.7 7.0 0.00 0.00 0.81 39 1005.6
20260504172318 73 210 1.7 7.0 0.00 0.00 0.81 38 1005.6
20260504172304 73 210 2.6 7.0 0.00 0.00 0.81 38 1005.5
20260504172203 73 207 2.6 7.0 0.00 0.00 0.81 38 1005.5
20260504172003 73 208 2.6 7.0 0.00 0.00 0.81 37 1005.5
20260504171903 73 206 2.6 7.0 0.00 0.00 0.81 38 1005.4
20260504171803 74 205 2.6 7.0 0.00 0.00 0.81 37 1005.6
20260504171703 74 206 2.6 7.0 0.00 0.00 0.81 37 1005.5
20260504171603 74 206 2.6 7.0 0.00 0.00 0.81 37 1005.5
20260504171503 74 205 2.6 7.0 0.00 0.00 0.81 35 1005.5
20260504171403 74 206 3.5 7.0 0.00 0.00 0.81 38 1005.5
20260504171304 74 203 2.6 7.0 0.00 0.00 0.81 36 1005.4
20260504171203 74 208 2.6 7.0 0.00 0.00 0.81 37 1005.5
20260504171103 74 210 2.6 7.0 0.00 0.00 0.81 37 1005.5
20260504171003 74 207 2.6 7.0 0.00 0.00 0.81 35 1005.5
20260504170903 75 207 2.6 7.0 0.00 0.00 0.81 35 1005.5
20260504170803 75 209 2.6 7.0 0.00 0.00 0.81 35 1005.5
20260504170703 75 210 2.6 7.0 0.00 0.00 0.81 35 1005.3
20260504170603 75 208 3.5 7.0 0.00 0.00 0.81 33 1005.5
20260504170503 75 205 2.6 7.0 0.00 0.00 0.81 32 1005.4
20260504170403 75 205 3.5 7.0 0.00 0.00 0.81 32 1005.3
20260504170303 75 207 2.6 7.0 0.00 0.00 0.81 32 1005.5
20260504170203 75 205 3.5 7.0 0.00 0.00 0.81 32 1005.5
20260504160403 77 194 4.3 11.3 0.00 0.00 0.81 30 1005.5
20260504160303 77 193 4.3 11.3 0.00 0.00 0.81 30 1005.5
20260504160203 77 193 4.3 11.3 0.00 0.00 0.81 30 1005.5
20260504160103 77 200 5.2 11.3 0.00 0.00 0.81 32 1005.6
20260504150903 77 174 6.1 13.0 0.00 0.00 0.81 30 1005.7